Miscellaneous Local Product
Issued by NWS Hastings, NE

Home | Current Version | Previous Version | Text Only | Print | Product List | Glossary On
Versions: 1 2 3 4 5 6 7 8 9 10 11 12 13 14 15 16 17 18 19 20 21 22 23 24 25 26 27 28 29 30 31 32 33 34 35 36 37 38 39 40 41 42 43 44 45 46 47 48 49 50
511
AXUS43 KGID 102202
MISGRI

GID CWA HOURLY WEATHER ROUNDUP
NATIONAL WEATHER SERVICE HASTINGS NE
400 PM CST SAT DEC 10 2016

NOTE: "FAIR" INDICATES FEW OR NO CLOUDS BELOW 12,000 FEET WITH NO
SIGNIFICANT WEATHER AND/OR OBSTRUCTIONS TO VISIBILITY.

...SOUTH CENTRAL NEBRASKA...

CITY           SKY/WX    TMP DP  RH WIND       PRES   REMARKS
GRAND ISLAND   CLOUDY    31  20  63 S16       29.94F WCI  20
HASTINGS       CLOUDY    33  19  56 S15G22    29.94F WCI  23
KEARNEY        CLOUDY    32  18  55 S18G24    29.91S WCI  20
ORD            CLOUDY    31  18  58 S12       29.89F WCI  22
YORK           CLOUDY    32  18  55 S15       29.99R WCI  22
AURORA         CLOUDY    32  19  57 S13       29.96S WCI  22
LEXINGTON      CLOUDY    32  21  64 S17G23    29.88F WCI  21
HOLDREGE       CLOUDY    33  22  63 S16       29.90F WCI  23
HEBRON         CLOUDY    35  19  53 S13G21    30.01F WCI  26

...NEBRASKA PANHANDLE...

CITY           SKY/WX    TMP DP  RH WIND       PRES   REMARKS
CHADRON        CLOUDY    16   8  71 N6        29.74S WCI   7
ALLIANCE       CLOUDY    30  22  72 S9        29.69F WCI  22
SCOTTSBLUFF    CLOUDY    29  19  66 SE5       29.71S WCI  24
SIDNEY         CLOUDY    32  24  72 S13       29.72F WCI  22

...WESTERN AND NORTH CENTRAL NEBRASKA...

CITY           SKY/WX    TMP DP  RH WIND       PRES   REMARKS
VALENTINE      CLOUDY    18  13  80 NE7       29.80F WCI   9
AINSWORTH      CLOUDY    27  22  80 SE8       29.81F WCI  19
ONEILL         CLOUDY    29  21  73 SE12      29.90F WCI  19
BROKEN BOW     CLOUDY    30  20  66 S18G25    29.86F WCI  18
IMPERIAL       CLOUDY    29  22  75 SE13      29.80F WCI  19
NORTH PLATTE   CLOUDY    29  21  72 S12       29.83F WCI  19
MCCOOK         CLOUDY    34  25  69 SE10      29.84F WCI  26

...EASTERN NEBRASKA...

CITY           SKY/WX    TMP DP  RH WIND       PRES   REMARKS
NORFOLK        NOT AVBL
SO SIOUX CITY  CLOUDY    26  20  77 SE18      30.08F WCI  13
TEKAMAH        CLOUDY    27  20  75 E15       30.09F WCI  15
COLUMBUS       CLOUDY    30  16  55 SE13      30.01F WCI  20
ALBION         CLOUDY    29  19  64 SE15      29.96F WCI  18
OMAHA EPPLEY   CLOUDY    31  15  52 SE14      30.10F WCI  21
MILLARD        CLOUDY    32  17  55 SE6       30.10F WCI  26
LINCOLN        CLOUDY    33  16  49 SE13G21   30.05F WCI  24
NEBRASKA CITY  CLOUDY    32  12  44 SE13      30.08F WCI  22
BEATRICE       CLOUDY    34  19  53 SE13G18   30.03F WCI  25
FALLS CITY     CLOUDY    34  18  52 SE14G21   30.11F WCI  25

...NORTHERN KANSAS...

CITY           SKY/WX    TMP DP  RH WIND       PRES   REMARKS
GOODLAND       CLOUDY    35  25  66 SE13      29.77S WCI  26
HILL CITY      CLOUDY    38  25  59 S9        29.88F WCI  31
NORTON         CLEAR     36  19  51 SE9G18    29.86F WCI  29
PHILLIPSBURG   SUNNY     39  25  56 SE10      29.92F WCI  32
SMITH CENTER   SUNNY     36  23  60 SE15      29.94S WCI  26
BELOIT         MOCLDY    39  21  48 SE10G18   29.97F WCI  32
HAYS           CLOUDY    40  24  53 S15       29.91F WCI  32
RUSSELL        CLOUDY    40  25  55 S16       29.91F WCI  31
CONCORDIA      CLOUDY    39  23  52 S16G26    30.00F WCI  30
SALINA         CLOUDY    43  24  47 S13       30.02F
TOPEKA         CLOUDY    37  22  54 SE12      30.12F WCI  29



USA.gov is the U.S. government's official web portal to all federal, state and local government web resources and services.